This demonstration page uses our WeatherBlox Daily Observations layout. Learn more.

Left ArrowRight Arrow

Hourly Observations for May 20, 2018

Temp ( °F °C ) Dew Point ( °F °C ) Humidity (%) Winds ( mph kmh ) Pressure ( in mb ) Visibility ( mi km ) Precip ( " mm )
12:22 am 00:22 Cloudy with Rain 52 11 50 10 94 94 NW 8 13 30.09 1019 3 4 0.00 0.00
12:30 am 00:30 Cloudy with Rain 52 11 52 11 100 100 NW 10 17 30.09 1019 3 5 0.00 0.00
12:44 am 00:44 Cloudy with Heavy Rain 52 11 52 11 100 100 NNW 9 15 30.09 1019 3 4 0.00 0.00
12:53 am 00:53 Cloudy with Rain 51 10.6 51 10.6 100 100 NW 7 11 30.11 1020 3 5 0.20 5.08
1:01 am 01:01 Cloudy with Rain 51 10.6 51 10.6 100 100 NNW 7 11 30.12 1020 3 4 0.04 1.02
1:17 am 01:17 Cloudy with Light Rain 51 10.6 51 10.6 100 100 NNW 10 17 30.12 1020 7 11 0.08 2.03
1:24 am 01:24 Cloudy with Light Rain 52 11 52 11 100 100 NNW 9 15 30.09 1019 7 11 0.00 0.00
1:31 am 01:31 Cloudy with Light Rain 52 11 50 10 94 94 NNW 9 15 30.09 1019 10 16 0.00 0.00
1:50 am 01:50 Cloudy 52 11 52 11 100 100 NNW 8 13 30.09 1019 10 16 0.00 0.00
1:53 am 01:53 Cloudy 52 11.1 51 10.6 97 97 NNW 8 13 30.09 1019 10 16 0.08 2.03
2:02 am 02:02 Cloudy 52 11 52 11 100 100 N 8 13 30.09 1019 10 16 0.00 0.00
2:53 am 02:53 Cloudy 52 11.1 51 10.6 97 97 NNW 8 13 30.09 1019 10 16 0.00 0.00
3:53 am 03:53 Cloudy with Light Rain 52 11.1 51 10.6 97 97 N 6 9 30.08 1019 7 11 0.01 0.25
4:53 am 04:53 Cloudy 53 11.7 52 11.1 96 96 N 8 13 30.10 1019 9 14 0.00 0.03
5:33 am 05:33 Cloudy with Light Rain 53 11.7 52 11.1 96 96 N 6 9 30.09 1019 2 3 0.01 0.25
5:39 am 05:39 Cloudy with Light Rain 53 11.7 52 11.1 96 96 N 6 9 30.09 1019 2 3 0.02 0.51
5:53 am 05:53 Cloudy with Light Rain 53 11.7 52 11.1 96 96 N 7 11 30.10 1019 2 3 0.02 0.51
6:42 am 06:42 Cloudy with Mist and Fog 54 12 54 12 100 100 N 7 11 30.09 1019 2 3 0.00 0.00
6:53 am 06:53 Cloudy with Mist and Fog 53 11.7 53 11.7 100 100 N 8 13 30.12 1020 2 3 0.01 0.25
7:09 am 07:09 Cloudy with Mist and Fog 54 12.2 53 11.7 97 97 N 8 13 30.09 1019 2 3 0.00 0.00
7:43 am 07:43 Cloudy with Mist and Fog 54 12.2 53 11.7 97 97 NNE 9 15 30.09 1019 2 3 0.00 0.00
7:53 am 07:53 Cloudy with Mist and Fog 54 12.2 53 11.7 97 97 NNE 8 13 30.13 1020 2 3 0.00 0.00
8:29 am 08:29 Cloudy with Mist and Fog 54 12.2 53 11.7 97 97 NNE 9 15 30.12 1020 2 3 0.00 0.00
8:53 am 08:53 Cloudy with Mist and Fog 54 12.2 53 11.7 97 97 NNE 9 15 30.15 1021 3 5 0.00 0.00
9:03 am 09:03 Cloudy with Mist and Fog 54 12.2 54 12.2 100 100 NNE 10 17 30.12 1020 3 5 0.00 0.00
9:53 am 09:53 Cloudy with Mist and Fog 55 12.8 53 11.7 93 93 NNE 15 24 30.14 1021 5 8 0.00 0.00
10:53 am 10:53 Cloudy 56 13.3 53 11.7 90 90 NNE 14 22 30.16 1021 8 13 0.00 0.00
11:53 am 11:53 Cloudy with Mist and Fog 56 13.3 54 12.2 93 93 NNE 13 20 30.16 1021 5 8 0.00 0.00
12:22 pm 12:22 Cloudy 57 14 54 12 88 88 NE 15 24 30.12 1020 10 16 0.00 0.00
12:50 pm 12:50 Cloudy 55 13 54 12 94 94 NNE 14 22 30.12 1020 10 16 0.00 0.00
12:53 pm 12:53 Cloudy 56 13.3 53 11.7 90 90 NNE 14 22 30.15 1021 10 16 0.00 0.00
1:53 pm 13:53 Cloudy 57 13.9 54 12.2 90 90 NNE 13 20 30.14 1021 10 16 0.00 0.00
2:53 pm 14:53 Cloudy 57 13.9 53 11.7 87 87 N 10 17 30.13 1020 10 16 0.00 0.00
3:53 pm 15:53 Cloudy 57 13.9 53 11.7 87 87 NNE 10 17 30.12 1020 10 16 0.00 0.00
4:53 pm 16:53 Cloudy 56 13.3 52 11.1 87 87 NE 13 20 30.11 1020 10 16 0.00 0.00
5:53 pm 17:53 Cloudy 56 13.3 52 11.1 87 87 NE 10 17 30.11 1020 10 16 0.00 0.00
6:38 pm 18:38 Cloudy 55 12.8 52 11.1 90 90 ENE 8 13 30.09 1019 10 16 0.00 0.00
6:53 pm 18:53 Cloudy 55 12.8 52 11.1 90 90 NE 9 15 30.11 1020 10 16 0.00 0.00
7:53 pm 19:53 Cloudy 55 12.8 52 11.1 90 90 NNE 7 11 30.10 1019 10 16 0.00 0.00
8:28 pm 20:28 Cloudy 55 13 52 11 88 88 NNE 8 13 30.09 1019 10 16 0.00 0.00
8:53 pm 20:53 Cloudy 55 12.8 52 11.1 90 90 N 7 11 30.11 1020 10 16 0.00 0.00
9:20 pm 21:20 Cloudy 54 12 52 11 94 94 N 6 9 30.09 1019 10 16 0.00 0.00
9:53 pm 21:53 Cloudy 55 12.8 52 11.1 90 90 N 6 9 30.13 1020 10 16 0.00 0.00
10:53 pm 22:53 Cloudy 54 12.2 52 11.1 93 93 Calm 30.13 1020 9 14 0.00 0.00
11:18 pm 23:18 Cloudy 54 12 52 11 94 94 NNE 3 6 30.09 1019 8 13 0.00 0.00
11:53 pm 23:53 Cloudy 54 12.2 52 11.1 93 93 Calm 30.12 1020 7 11 0.00 0.00

Powered by AerisWeather